When you browse on this site, cookies collect data to enhance your experience and personalize the content and advertising you see.
Visit our Privacy Policy to learn more. By continuing to use the site, you agree to this use of cookies and data.
  • In Austria
  • List of Countries
  • For 7 days
  • Water Temperature
  • Satellite Maps
  • Weather Map
  • News
  • Weather Widgets
  • user-avatar
    Login

    Hourly Weather Dedovka

    Today, 24 July, Wednesday

    Time Temperature Precipitation Wind Pressure Humidity
    00:00 +16°C° 0 mm 3 mps 748 mmHg 96%
    01:00 +16°C° 0 mm 3 mps 748 mmHg 97%
    02:00 +14°C° 0 mm 3 mps 748 mmHg 97%
    03:00 +14°C° 0 mm 3 mps 748 mmHg 97%
    04:00 +14°C° 0 mm 3 mps 748 mmHg 97%
    05:00 +14°C° 0 mm 3 mps 748 mmHg 97%
    06:00 +16°C° 0 mm 3 mps 748 mmHg 94%
    07:00 +17°C° 0 mm 3 mps 748 mmHg 91%
    08:00 +19°C° 0 mm 3 mps 748 mmHg 88%
    09:00 +20°C° 0 mm 4 mps 748 mmHg 78%
    10:00 +22°C° 0 mm 4 mps 749 mmHg 68%
    11:00 +25°C° 0 mm 4 mps 749 mmHg 58%
    12:00 +26°C° 0 mm 4 mps 749 mmHg 56%
    13:00 +26°C° 0 mm 4 mps 749 mmHg 54%
    14:00 +27°C° 0 mm 4 mps 748 mmHg 52%
    15:00 +26°C° 0 mm 4 mps 749 mmHg 54%
    16:00 +26°C° 0 mm 4 mps 749 mmHg 56%
    17:00 +26°C° 0 mm 3 mps 749 mmHg 58%
    18:00 +24°C° 0 mm 3 mps 749 mmHg 66%
    19:00 +21°C° 0 mm 3 mps 749 mmHg 73%
    20:00 +19°C° 0 mm 2 mps 749 mmHg 80%
    21:00 +18°C° 0 mm 2 mps 749 mmHg 83%
    22:00 +17°C° 0 mm 2 mps 750 mmHg 86%
    23:00 +16°C° 0 mm 2 mps 750 mmHg 89%

    Tomorrow, 25 July, Thursday

    Time Temperature Precipitation Wind Pressure Humidity
    00:00 +16°C° 0 mm 2 mps 750 mmHg 90%
    01:00 +15°C° 0 mm 2 mps 750 mmHg 92%
    02:00 +15°C° 0 mm 2 mps 750 mmHg 93%
    03:00 +15°C° 0 mm 2 mps 750 mmHg 92%
    04:00 +15°C° 0 mm 2 mps 750 mmHg 90%
    05:00 +14°C° 0 mm 2 mps 750 mmHg 89%
    06:00 +16°C° 0 mm 2 mps 750 mmHg 84%
    07:00 +18°C° 0 mm 2 mps 750 mmHg 78%
    08:00 +20°C° 0 mm 2 mps 750 mmHg 73%
    09:00 +21°C° 0.2 mm 2 mps 750 mmHg 69%
    10:00 +23°C° 0.2 mm 2 mps 750 mmHg 65%
    11:00 +25°C° 0.2 mm 3 mps 750 mmHg 61%
    12:00 +25°C° 0.8 mm 3 mps 750 mmHg 63%
    13:00 +25°C° 0.8 mm 3 mps 749 mmHg 64%
    14:00 +25°C° 0.8 mm 3 mps 749 mmHg 65%
    15:00 +24°C° 0.7 mm 3 mps 749 mmHg 68%
    16:00 +24°C° 0.7 mm 3 mps 749 mmHg 71%
    17:00 +24°C° 0.7 mm 3 mps 748 mmHg 74%
    18:00 +21°C° 0.4 mm 3 mps 748 mmHg 79%
    19:00 +20°C° 0.4 mm 2 mps 748 mmHg 85%
    20:00 +19°C° 0.4 mm 2 mps 748 mmHg 90%
    21:00 +18°C° 0 mm 2 mps 748 mmHg 92%
    22:00 +17°C° 0 mm 2 mps 748 mmHg 93%
    23:00 +16°C° 0 mm 2 mps 748 mmHg 95%

    Day after tomorrow, 26 July, Friday

    Time Temperature Precipitation Wind Pressure Humidity
    00:00 +16°C° 0 mm 2 mps 748 mmHg 95%
    01:00 +15°C° 0 mm 2 mps 748 mmHg 96%
    02:00 +15°C° 0 mm 2 mps 747 mmHg 97%
    03:00 +14°C° 0 mm 2 mps 747 mmHg 97%
    04:00 +14°C° 0 mm 2 mps 747 mmHg 97%
    05:00 +14°C° 0 mm 2 mps 747 mmHg 98%
    06:00 +15°C° 0 mm 2 mps 747 mmHg 95%
    07:00 +16°C° 0 mm 2 mps 747 mmHg 92%
    08:00 +17°C° 0 mm 3 mps 747 mmHg 90%
    09:00 +18°C° 0 mm 3 mps 747 mmHg 87%
    10:00 +18°C° 0 mm 3 mps 747 mmHg 84%
    11:00 +19°C° 0 mm 3 mps 747 mmHg 81%
    12:00 +20°C° 0.2 mm 3 mps 747 mmHg 78%
    13:00 +22°C° 0.2 mm 3 mps 747 mmHg 74%
    14:00 +23°C° 0.2 mm 4 mps 747 mmHg 70%
    15:00 +23°C° 0.6 mm 4 mps 747 mmHg 74%
    16:00 +22°C° 0.6 mm 4 mps 747 mmHg 79%
    17:00 +22°C° 0.6 mm 4 mps 746 mmHg 83%
    18:00 +21°C° 0.6 mm 3 mps 746 mmHg 86%
    19:00 +20°C° 0.6 mm 3 mps 747 mmHg 89%
    20:00 +19°C° 0.6 mm 3 mps 747 mmHg 93%
    21:00 +18°C° 0.5 mm 3 mps 747 mmHg 94%
    22:00 +18°C° 0.5 mm 3 mps 747 mmHg 95%
    23:00 +17°C° 0.5 mm 3 mps 747 mmHg 97%

    27 July, Saturday

    Time Temperature Precipitation Wind Pressure Humidity
    00:00 +17°C° 0 mm 3 mps 746 mmHg 97%
    01:00 +17°C° 0 mm 3 mps 746 mmHg 98%
    02:00 +17°C° 0 mm 2 mps 746 mmHg 98%
    03:00 +17°C° 0.6 mm 2 mps 746 mmHg 98%
    04:00 +17°C° 0.6 mm 2 mps 746 mmHg 98%
    05:00 +17°C° 0.6 mm 2 mps 746 mmHg 98%
    06:00 +17°C° 0.8 mm 2 mps 746 mmHg 98%
    07:00 +17°C° 0.8 mm 2 mps 746 mmHg 98%
    08:00 +17°C° 0.8 mm 2 mps 746 mmHg 98%
    09:00 +18°C° 0.6 mm 2 mps 746 mmHg 97%
    10:00 +19°C° 0.6 mm 2 mps 745 mmHg 96%
    11:00 +19°C° 0.6 mm 3 mps 745 mmHg 95%
    12:00 +20°C° 0.8 mm 3 mps 745 mmHg 92%
    13:00 +21°C° 0.8 mm 4 mps 745 mmHg 89%
    14:00 +22°C° 0.8 mm 5 mps 745 mmHg 87%
    15:00 +22°C° 1 mm 4 mps 744 mmHg 88%
    16:00 +21°C° 1 mm 4 mps 744 mmHg 89%
    17:00 +21°C° 1 mm 4 mps 744 mmHg 90%
    18:00 +20°C° 0.2 mm 3 mps 744 mmHg 92%
    19:00 +20°C° 0.2 mm 3 mps 744 mmHg 93%
    20:00 +19°C° 0.2 mm 3 mps 744 mmHg 95%
    21:00 +19°C° 0 mm 2 mps 744 mmHg 96%
    22:00 +18°C° 0 mm 2 mps 744 mmHg 96%
    23:00 +18°C° 0 mm 2 mps 745 mmHg 97%

    28 July, Sunday

    Time Temperature Precipitation Wind Pressure Humidity
    00:00 +18°C° 0 mm 2 mps 745 mmHg 97%
    01:00 +17°C° 0 mm 2 mps 745 mmHg 97%
    02:00 +17°C° 0 mm 2 mps 745 mmHg 97%
    03:00 +17°C° 0 mm 2 mps 745 mmHg 97%
    04:00 +17°C° 0 mm 2 mps 745 mmHg 97%
    05:00 +17°C° 0 mm 2 mps 745 mmHg 97%
    06:00 +18°C° 0 mm 3 mps 745 mmHg 94%
    07:00 +20°C° 0 mm 3 mps 745 mmHg 91%
    08:00 +21°C° 0 mm 3 mps 745 mmHg 88%
    09:00 +22°C° 0.4 mm 3 mps 745 mmHg 82%
    10:00 +25°C° 0.4 mm 4 mps 745 mmHg 76%
    11:00 +26°C° 0.4 mm 4 mps 745 mmHg 70%
    12:00 +27°C° 0.1 mm 4 mps 745 mmHg 66%
    13:00 +28°C° 0.1 mm 4 mps 744 mmHg 62%
    14:00 +29°C° 0.1 mm 4 mps 744 mmHg 58%
    15:00 +28°C° 0.4 mm 4 mps 744 mmHg 64%
    16:00 +27°C° 0.4 mm 3 mps 744 mmHg 70%
    17:00 +27°C° 0.4 mm 3 mps 744 mmHg 75%
    18:00 +25°C° 0.1 mm 3 mps 744 mmHg 80%
    19:00 +22°C° 0.1 mm 3 mps 744 mmHg 85%
    20:00 +21°C° 0.1 mm 3 mps 744 mmHg 90%
    21:00 +20°C° 0 mm 3 mps 745 mmHg 92%
    22:00 +19°C° 0 mm 3 mps 745 mmHg 94%
    23:00 +18°C° 0 mm 3 mps 745 mmHg 96%

    29 July, Monday

    Time Temperature Precipitation Wind Pressure Humidity
    00:00 +17°C° 0 mm 3 mps 745 mmHg 95%
    01:00 +16°C° 0 mm 3 mps 745 mmHg 94%
    02:00 +16°C° 0 mm 3 mps 746 mmHg 92%
    03:00 +14°C° 0 mm 3 mps 746 mmHg 93%
    04:00 +13°C° 0 mm 3 mps 746 mmHg 93%
    05:00 +12°C° 0 mm 3 mps 746 mmHg 94%
    06:00 +13°C° 0 mm 3 mps 746 mmHg 86%
    07:00 +14°C° 0 mm 3 mps 747 mmHg 78%
    08:00 +16°C° 0 mm 3 mps 747 mmHg 71%
    09:00 +17°C° 0 mm 4 mps 747 mmHg 66%
    10:00 +18°C° 0 mm 4 mps 748 mmHg 61%
    11:00 +19°C° 0 mm 4 mps 748 mmHg 56%
    12:00 +20°C° 0 mm 4 mps 748 mmHg 56%
    13:00 +20°C° 0 mm 4 mps 748 mmHg 55%
    14:00 +20°C° 0 mm 4 mps 748 mmHg 54%
    15:00 +20°C° 0 mm 3 mps 748 mmHg 57%
    16:00 +20°C° 0 mm 3 mps 748 mmHg 59%
    17:00 +19°C° 0 mm 3 mps 748 mmHg 62%
    18:00 +18°C° 0 mm 2 mps 748 mmHg 67%
    19:00 +16°C° 0 mm 2 mps 748 mmHg 72%
    20:00 +15°C° 0 mm 2 mps 749 mmHg 78%
    21:00 +14°C° 0 mm 2 mps 749 mmHg 80%
    22:00 +13°C° 0 mm 2 mps 749 mmHg 82%
    23:00 +13°C° 0 mm 2 mps 749 mmHg 84%
    Show more